This is the latest recevied weather packets stored in our database for station/object KE8CZD. If no packets are shown the sender has not sent any weather packets the latest 10 day(s).
| Time | Temp. | Humidity | Pressure | Rain* | Wind** | Luminosity | Snow |
|---|---|---|---|---|---|---|---|
| 1778161724 | 10° C | 41% | 1009.7 hPa | 0 mm | - | - | - |
| 1778161364 | 9.44° C | 41% | 1009.8 hPa | 0 mm | - | - | - |
| 1778161005 | 9.44° C | 43% | 1009.7 hPa | 0 mm | - | - | - |
| 1778160644 | 9.44° C | 44% | 1009.8 hPa | 0 mm | - | - | - |
| 1778160285 | 8.89° C | 47% | 1009.8 hPa | 0 mm | - | - | - |
| 1778159925 | 8.89° C | 50% | 1009.9 hPa | 0 mm | - | - | - |
| 1778159564 | 8.89° C | 51% | 1009.8 hPa | 0 mm | - | - | - |
| 1778159205 | 8.33° C | 53% | 1009.9 hPa | 0 mm | - | - | - |
| 1778158844 | 8.33° C | 54% | 1009.8 hPa | 0 mm | - | - | - |
| 1778158485 | 8.33° C | 54% | 1010 hPa | 0 mm | - | - | - |
| 1778158124 | 7.78° C | 54% | 1009.9 hPa | 0 mm | - | - | - |
| 1778157764 | 7.78° C | 56% | 1009.8 hPa | 0 mm | - | - | - |
| 1778157405 | 7.78° C | 57% | 1009.9 hPa | 0 mm | - | - | - |
| 1778157045 | 7.22° C | 58% | 1010 hPa | 0 mm | - | - | - |
| 1778156685 | 6.67° C | 62% | 1010.1 hPa | 0 mm | - | - | - |
| 1778156325 | 6.67° C | 64% | 1010.2 hPa | 0 mm | - | - | - |
| 1778155964 | 6.11° C | 66% | 1010.3 hPa | 0 mm | - | - | - |
| 1778155605 | 6.11° C | 69% | 1010.2 hPa | 0 mm | - | - | - |
| 1778155245 | 5.56° C | 72% | 1010.1 hPa | 0 mm | - | - | - |
| 1778154885 | 5.56° C | 77% | 1010.3 hPa | 0 mm | - | - | - |
| 1778154525 | 5° C | 78% | 1010.4 hPa | 0 mm | - | - | - |
| 1778154165 | 4.44° C | 79% | 1010.3 hPa | 0 mm | - | - | - |
| 1778153805 | 3.89° C | 80% | 1010.4 hPa | 0 mm | - | - | - |
| 1778153444 | 3.89° C | 81% | 1010.3 hPa | 0 mm | - | - | - |
| 1778153085 | 3.33° C | 80% | 1010.3 hPa | 0 mm | - | - | - |
* Rain latest hour (hover to see other rain measurements)
** Current wind speed in m/s (hover to see current wind gust speed)